Wind_Speed
134 133 129 123 121 119 116 114 111 109 106 102 98 95 92 91 91 90 90 90 90 90 93 101 101 103 102 100 98 96 97 98 96 95 91 86 81 77 74 71 69 67 65
133 128 124 125 123 119 116 111 108 104 100 96 94 90 88 86 86 87 89 87 88 87 88 89 95 96 99 102 100 97 97 95 96 98 94 88 83 79 75 75 72 70 67
131 128 126 123 119 116 113 108 100 98 95 91 88 86 84 82 84 85 87 88 88 86 86 84 88 90 89 95 99 101 97 95 94 96 96 92 87 79 77 76 75 72 71
130 128 123 119 115 112 108 102 94 88 84 81 79 78 77 76 77 80 81 84 85 87 82 79 85 86 85 88 94 97 98 94 91 92 94 93 89 83 79 77 77 75 73
128 122 116 114 109 108 103 94 85 76 72 67 68 68 68 66 66 69 73 76 80 84 77 76 76 80 85 85 87 92 96 95 90 86 91 88 89 87 83 81 75 74 74
122 113 110 105 103 102 95 83 72 65 62 58 60 60 61 58 59 60 62 67 72 75 73 70 72 71 79 85 84 87 91 96 86 85 89 87 87 92 89 83 77 74 74
113 110 104 99 96 92 82 71 64 58 54 54 52 51 52 53 53 53 55 55 59 62 65 63 68 67 73 81 82 85 89 92 85 83 83 86 85 87 89 80 78 76 74
106 101 98 95 89 80 72 67 60 55 51 49 45 44 44 47 46 45 44 46 50 51 58 57 62 62 68 77 79 82 85 86 84 81 79 86 83 80 78 83 79 76 76
98 95 92 87 78 70 66 62 56 50 45 40 38 34 36 35 35 35 36 39 43 47 47 48 56 57 62 72 73 77 80 80 82 79 83 82 79 73 75 75 76 78 78
93 90 85 77 70 66 62 56 50 45 41 35 30 26 28 29 29 30 32 33 35 36 36 41 51 53 57 67 71 74 75 76 78 74 72 71 73 73 70 69 72 74 77
88 84 76 70 65 59 53 46 42 38 33 28 23 21 20 21 23 23 25 26 26 30 34 40 47 49 55 64 68 70 70 71 69 69 69 69 67 63 63 67 68 71 74
82 75 68 64 57 50 40 36 32 27 21 16 12 12 10 10 13 17 19 21 23 27 32 37 44 49 52 59 62 63 59 54 57 61 63 63 58 61 62 62 65 68 71
75 68 62 55 47 38 32 28 23 19 15 10 7 4 3 7 9 13 16 20 24 28 31 36 44 45 46 49 48 44 44 51 57 57 52 52 56 56 57 62 64 65 69
65 60 53 46 36 31 27 22 18 14 7 5 3 6 8 10 13 17 19 22 25 28 32 34 36 39 37 37 39 43 48 50 48 50 51 49 51 52 53 56 56 60 59
58 50 42 34 29 25 20 17 11 7 8 10 11 11 13 16 18 19 21 24 26 30 33 35 36 37 37 39 43 46 46 47 46 45 44 44 44 46 44 42 45 49 55
48 39 33 29 24 19 15 13 12 16 16 15 16 17 18 20 22 24 25 29 32 35 38 39 38 39 42 44 44 43 42 42 43 42 39 36 33 30 30 32 38 48 55
38 30 27 23 17 16 19 19 16 19 19 20 22 25 28 29 32 34 36 38 40 40 42 41 43 44 45 46 45 44 43 42 40 35 30 29 28 23 22 25 36 44 45
29 22 19 16 17 19 21 23 24 26 28 29 34 36 39 41 42 41 42 43 45 48 49 51 51 49 48 48 46 45 42 39 37 37 34 26 17 12 17 26 31 35 28
19 17 16 15 19 24 28 33 35 37 39 42 44 46 48 50 50 49 49 51 53 53 54 54 52 50 50 49 47 46 46 45 40 34 28 21 14 15 15 17 24 15 5
12 13 13 21 27 30 35 38 40 41 44 47 50 53 56 58 57 57 55 56 56 55 54 54 53 52 51 52 51 49 46 41 35 32 26 18 12 6 7 16 14 4 18
10 12 21 29 33 36 41 43 44 48 53 54 55 57 60 61 60 60 59 59 58 56 56 55 55 54 52 51 49 44 40 37 35 29 23 17 10 5 3 5 7 25 30
11 21 28 36 41 43 44 47 49 54 57 60 59 62 62 62 62 61 60 60 61 60 58 57 56 53 50 47 44 42 39 35 31 27 23 19 14 10 12 16 28 44 46
19 28 33 39 43 49 53 52 51 56 56 62 64 64 64 64 64 63 62 61 59 58 56 54 52 50 47 44 42 39 36 33 29 26 25 24 18 21 23 32 41 49 66
26 34 37 45 50 49 55 55 54 57 61 63 66 65 64 63 63 59 55 54 56 54 51 49 48 46 44 42 39 35 34 31 28 27 29 28 26 29 34 43 46 54 67
33 39 43 48 50 52 59 59 58 59 61 62 62 60 60 62 61 53 52 52 52 51 49 47 46 44 42 38 35 32 31 31 29 30 33 34 32 39 42 44 46 59 66
37 42 43 50 54 56 59 55 53 54 54 59 58 55 58 59 58 54 50 48 48 48 47 44 43 41 38 35 33 31 30 32 30 33 38 41 37 40 45 47 45 57 67
Wind_Direction
308 307 306 304 303 302 300 298 296 293 291 289 285 281 278 274 272 269 266 263 259 255 252 251 248 247 245 244 244 241 238 236 235 237 240 240 240 240 241 241 243 245 246
308 308 308 307 305 303 301 299 297 295 292 288 284 280 276 272 268 267 265 263 260 257 253 249 248 245 243 242 242 241 239 235 233 234 235 238 238 239 240 241 241 243 244
310 310 309 308 305 304 302 300 298 296 293 289 284 280 275 270 266 263 262 261 260 258 254 251 247 244 241 240 239 239 238 236 233 232 233 234 236 237 239 240 241 242 244
312 311 310 307 307 305 302 302 302 297 291 287 283 278 273 268 264 261 260 257 257 257 255 250 247 245 240 237 236 236 237 236 233 231 232 231 234 235 236 238 240 241 243
311 311 309 308 307 305 304 305 302 297 292 287 281 275 270 267 261 258 257 255 253 252 250 247 244 239 239 236 233 233 233 234 231 230 233 230 230 233 234 236 239 241 242
311 310 308 308 307 306 306 305 302 299 294 288 281 277 271 264 259 255 252 250 249 249 247 241 239 231 231 231 229 230 230 232 228 228 231 233 228 229 232 234 236 240 243
311 309 310 309 308 307 309 307 305 303 297 288 283 277 272 266 259 253 250 247 246 245 244 238 234 227 223 225 224 225 226 227 225 226 225 230 228 229 228 232 235 238 242
310 311 312 311 311 311 310 310 310 305 297 289 284 279 275 269 263 257 250 243 241 239 237 233 228 224 217 220 219 220 223 224 224 224 225 228 228 228 227 228 233 237 240
311 314 313 313 313 312 313 312 308 302 295 290 286 283 277 273 266 256 247 240 235 234 230 222 219 219 213 217 217 216 219 221 222 221 222 225 226 226 224 225 229 234 239
316 315 314 316 316 317 315 311 307 302 298 297 288 278 269 260 251 243 238 235 232 229 226 216 215 213 206 211 213 213 215 217 217 217 218 221 221 224 223 224 225 230 236
317 316 319 317 317 316 312 312 311 308 305 301 290 280 269 252 239 234 230 226 222 218 211 204 207 205 201 206 210 211 212 213 213 213 215 218 221 222 221 223 225 229 232
317 320 318 317 318 316 316 317 317 315 312 304 297 282 259 239 227 221 212 206 202 200 199 197 197 200 198 204 208 209 210 209 210 211 213 215 216 220 219 222 224 228 232
320 320 319 321 318 319 324 324 324 319 314 306 297 278 225 201 186 179 178 182 182 184 186 188 191 193 196 201 207 204 196 199 202 205 207 208 212 216 216 221 224 228 233
322 322 324 321 323 330 335 335 336 329 329 2 68 134 143 147 153 159 161 165 170 171 172 177 179 182 187 187 189 183 188 191 191 194 199 202 207 212 216 220 223 229 236
324 326 327 326 334 342 343 350 355 32 60 78 96 113 127 130 138 143 147 152 156 158 158 158 165 166 165 170 174 179 182 184 185 188 193 199 205 208 215 218 224 231 238
326 333 329 339 347 357 13 33 51 63 71 86 100 110 119 124 126 129 136 137 139 143 146 149 152 155 160 165 167 167 170 172 174 179 184 191 198 200 205 219 232 238 242
334 337 341 356 11 37 48 51 63 83 93 101 106 113 115 114 118 121 124 128 130 131 133 136 140 142 144 151 155 157 158 159 161 166 168 168 173 186 211 233 244 251 258
338 352 7 26 40 56 69 79 82 88 87 94 103 107 111 114 113 115 118 120 124 129 130 130 130 135 142 143 145 145 146 148 148 147 147 149 154 186 228 247 261 267 283
349 17 31 47 70 78 86 87 91 96 104 108 110 112 112 111 113 115 117 121 122 124 124 126 126 132 136 134 134 138 137 136 137 137 134 137 166 211 245 276 279 306 255
20 44 69 85 91 95 97 100 105 108 112 113 114 115 116 116 116 115 116 118 120 119 120 129 132 128 128 128 128 129 130 133 134 132 137 149 177 197 283 292 330 85 127
48 87 97 103 104 106 108 111 114 116 115 113 115 115 115 115 115 116 118 120 121 128 126 123 124 124 124 124 125 129 132 135 136 136 141 142 161 151 222 299 86 97 122
105 112 114 111 114 113 112 113 116 117 117 117 118 118 118 119 120 121 122 124 121 120 121 122 122 123 125 127 130 132 136 135 137 138 137 141 161 140 133 130 119 118 129
124 117 120 118 119 119 120 121 121 123 124 122 122 123 124 124 123 122 120 119 121 122 123 125 126 127 130 133 135 136 139 139 137 137 140 151 154 141 136 131 126 130 135
128 127 126 123 126 128 129 129 132 133 129 126 124 124 125 125 121 120 120 122 123 125 126 127 128 133 137 138 137 141 141 136 140 143 149 153 151 143 135 134 130 139 141
135 135 133 130 132 134 131 133 133 131 129 129 127 129 131 128 124 126 128 130 131 130 131 134 137 140 140 139 141 144 139 139 145 149 155 153 150 149 141 139 137 145 146
141 143 138 138 138 137 138 137 138 137 138 133 130 135 132 129 130 132 135 136 136 136 138 141 143 143 143 144 145 147 145 144 148 152 159 155 153 154 153 150 145 151 152
Height
10508 10488 10468 10450 10431 10415 10401 10387 10376 10363 10353 10348 10344 10343 10343 10342 10340 10341 10344 10351 10361 10372 10381 10391 10407 10419 10435 10451 10467 10485 10504 10522 10542 10546 10560 10576 10590 10603 10613 10622 10631 10637 10643
10473 10454 10434 10410 10391 10373 10359 10346 10333 10325 10315 10308 10304 10304 10304 10306 10308 10308 10311 10317 10324 10336 10345 10360 10373 10384 10402 10419 10434 10452 10472 10493 10513 10525 10537 10553 10568 10581 10595 10604 10611 10618 10625
10437 10416 10395 10374 10355 10337 10319 10306 10300 10287 10277 10269 10265 10265 10266 10270 10272 10276 10281 10285 10291 10301 10314 10329 10339 10353 10374 10387 10404 10419 10440 10459 10484 10500 10515 10530 10546 10563 10575 10584 10592 10599 10606
10402 10379 10359 10338 10321 10302 10286 10273 10266 10254 10243 10235 10231 10230 10229 10233 10239 10243 10249 10255 10263 10269 10281 10296 10308 10325 10342 10356 10373 10392 10410 10429 10453 10474 10491 10510 10526 10541 10555 10564 10571 10580 10588
10369 10348 10327 10308 10291 10270 10255 10245 10234 10223 10213 10207 10200 10198 10198 10203 10207 10213 10219 10226 10233 10237 10253 10263 10277 10295 10312 10329 10347 10366 10383 10402 10424 10449 10469 10490 10508 10519 10533 10538 10554 10563 10569
10336 10320 10301 10283 10263 10241 10229 10218 10206 10197 10188 10181 10175 10173 10173 10178 10181 10187 10192 10197 10204 10211 10224 10238 10248 10267 10284 10301 10324 10341 10360 10377 10399 10424 10446 10466 10482 10493 10506 10523 10536 10545 10552
10309 10288 10272 10255 10236 10218 10204 10194 10184 10174 10166 10158 10154 10152 10152 10155 10160 10165 10170 10178 10185 10194 10203 10216 10225 10243 10260 10277 10299 10317 10335 10354 10375 10402 10425 10442 10457 10473 10488 10510 10518 10526 10534
10285 10267 10246 10227 10211 10195 10183 10170 10163 10155 10147 10141 10139 10137 10137 10138 10143 10148 10155 10161 10168 10177 10183 10196 10208 10222 10241 10257 10276 10296 10316 10336 10358 10385 10406 10418 10436 10456 10477 10488 10501 10511 10515
10260 10243 10223 10204 10190 10177 10163 10153 10146 10138 10133 10129 10126 10125 10124 10127 10131 10135 10140 10145 10151 10158 10169 10182 10194 10208 10227 10244 10265 10282 10299 10320 10341 10364 10378 10398 10420 10445 10457 10471 10485 10494 10498
10238 10220 10201 10186 10172 10159 10147 10138 10132 10126 10122 10118 10115 10113 10113 10115 10118 10122 10126 10132 10139 10150 10162 10174 10185 10198 10216 10231 10248 10265 10287 10306 10325 10346 10369 10392 10408 10424 10441 10457 10467 10475 10483
10218 10199 10184 10169 10157 10146 10135 10128 10122 10117 10113 10109 10106 10104 10105 10106 10109 10114 10120 10127 10135 10144 10153 10164 10174 10190 10206 10221 10237 10256 10275 10294 10314 10337 10358 10379 10397 10415 10430 10441 10451 10461 10469
10199 10183 10169 10156 10145 10135 10126 10119 10114 10109 10105 10103 10100 10100 10101 10102 10104 10110 10117 10124 10131 10140 10149 10160 10172 10186 10203 10218 10231 10249 10271 10296 10315 10335 10351 10370 10392 10404 10417 10428 10439 10447 10453
10184 10169 10156 10145 10135 10126 10119 10113 10108 10104 10101 10097 10097 10098 10098 10100 10104 10109 10116 10123 10130 10138 10149 10161 10173 10189 10203 10218 10235 10258 10277 10291 10306 10324 10347 10366 10380 10395 10409 10417 10427 10434 10437
10172 10159 10148 10137 10128 10121 10114 10108 10105 10103 10098 10097 10097 10097 10099 10101 10106 10111 10117 10124 10133 10141 10153 10166 10180 10194 10208 10224 10241 10258 10273 10290 10309 10326 10342 10360 10375 10389 10401 10409 10418 10423 10430
10162 10152 10142 10132 10125 10118 10112 10108 10106 10101 10099 10099 10099 10100 10103 10106 10110 10116 10123 10131 10140 10148 10159 10173 10185 10200 10214 10228 10245 10260 10276 10292 10310 10327 10343 10358 10373 10385 10396 10406 10413 10416 10419
10156 10149 10137 10131 10124 10118 10113 10110 10107 10104 10102 10103 10105 10108 10110 10114 10119 10126 10133 10141 10150 10159 10169 10181 10194 10206 10219 10233 10250 10268 10284 10299 10314 10330 10346 10360 10374 10386 10394 10400 10403 10405 10406
10154 10147 10137 10131 10125 10120 10115 10113 10111 10111 10112 10113 10114 10117 10119 10125 10130 10137 10146 10155 10163 10172 10182 10194 10205 10217 10231 10246 10260 10275 10290 10306 10322 10337 10351 10364 10375 10385 10391 10394 10392 10393 10397
10154 10147 10139 10133 10128 10123 10121 10121 10119 10120 10122 10125 10127 10130 10134 10139 10146 10154 10161 10169 10178 10186 10195 10204 10216 10229 10243 10256 10271 10286 10300 10315 10329 10343 10355 10367 10377 10384 10387 10387 10386 10386 10388
10154 10147 10141 10137 10133 10131 10129 10129 10129 10132 10135 10137 10140 10143 10148 10153 10161 10169 10177 10183 10191 10200 10208 10219 10230 10246 10257 10269 10283 10296 10309 10322 10335 10348 10361 10371 10378 10381 10383 10383 10378 10377 10372
10157 10151 10147 10144 10142 10141 10140 10140 10142 10145 10149 10151 10154 10157 10162 10167 10173 10182 10192 10200 10207 10216 10225 10238 10249 10259 10270 10282 10294 10305 10318 10330 10343 10356 10366 10373 10375 10380 10381 10379 10375 10372 10367
10160 10157 10154 10153 10153 10153 10153 10154 10156 10158 10161 10164 10169 10174 10177 10183 10191 10198 10207 10215 10223 10234 10241 10251 10261 10271 10284 10294 10305 10317 10328 10339 10351 10360 10367 10372 10375 10382 10383 10381 10381 10374 10374
10166 10164 10163 10162 10163 10163 10164 10167 10169 10172 10175 10178 10183 10189 10194 10200 10208 10216 10223 10230 10235 10245 10255 10264 10274 10284 10295 10305 10316 10326 10337 10346 10355 10362 10369 10374 10379 10385 10387 10386 10386 10385 10389
10172 10172 10173 10172 10173 10175 10176 10179 10183 10185 10188 10191 10196 10202 10208 10214 10221 10228 10234 10242 10251 10259 10268 10277 10286 10295 10306 10316 10325 10334 10342 10351 10358 10365 10372 10378 10384 10388 10392 10393 10394 10398 10401
10180 10181 10181 10182 10184 10186 10188 10190 10194 10196 10199 10203 10208 10215 10219 10223 10230 10239 10248 10257 10263 10271 10280 10289 10298 10308 10316 10324 10332 10340 10348 10355 10362 10369 10377 10383 10389 10394 10398 10401 10404 10409 10414
10187 10188 10190 10192 10193 10195 10199 10201 10204 10207 10210 10215 10219 10226 10231 10232 10238 10251 10260 10268 10274 10281 10290 10299 10308 10315 10323 10330 10338 10346 10353 10361 10367 10374 10381 10388 10394 10401 10405 10409 10413 10420 10425
10193 10195 10197 10200 10203 10205 10207 10212 10215 10217 10221 10226 10231 10236 10239 10243 10249 10260 10270 10278 10285 10291 10299 10308 10315 10322 10328 10336 10344 10351 10358 10366 10372 10379 10386 10393 10400 10406 10412 10417 10420 10426 10433